| time (UTC) | temp C | wind direction | speed KPH | gust KPH | rain 1hr cm | rain 24hr cm | rain mn cm | humidity % | barometer mb |
| 20260502205536 | 24 | 257 | 1.6 | 8.0 | 0.00 | 0.00 | 0.00 | 37 | 1018.7 |
| 20260502204508 | 24 | 329 | 1.6 | 8.0 | 0.00 | 0.00 | 0.00 | 36 | 1018.9 |
| 20260502203528 | 23 | 5 | 0.0 | 6.4 | 0.00 | 0.00 | 0.00 | 38 | 1019.1 |
| 20260502201411 | 24 | 355 | 3.2 | 11.3 | 0.00 | 0.00 | 0.00 | 37 | 1019.4 |
| 20260502200419 | 23 | 278 | 1.6 | 12.9 | 0.00 | 0.00 | 0.00 | 40 | 1019.4 |
| 20260502195352 | 23 | 238 | 4.8 | 12.9 | 0.00 | 0.00 | 0.00 | 37 | 1019.5 |
| 20260502194332 | 23 | 261 | 1.6 | 4.8 | 0.00 | 0.00 | 0.00 | 36 | 1019.6 |
| 20260502193338 | 23 | 80 | 1.6 | 6.4 | 0.00 | 0.00 | 0.00 | 36 | 1019.6 |
| 20260502192337 | 23 | 136 | 1.6 | 9.7 | 0.00 | 0.00 | 0.00 | 33 | 1019.8 |
| 20260502191338 | 23 | 332 | 1.6 | 9.7 | 0.00 | 0.00 | 0.00 | 36 | 1020.0 |
| 20260502190340 | 23 | 48 | 1.6 | 9.7 | 0.00 | 0.00 | 0.00 | 36 | 1020.1 |
| 20260502185310 | 23 | 49 | 1.6 | 9.7 | 0.00 | 0.00 | 0.00 | 38 | 1020.2 |
| 20260502183059 | 23 | 325 | 1.6 | 11.3 | 0.00 | 0.00 | 0.00 | 39 | 1020.5 |
| 20260502182112 | 22 | 247 | 3.2 | 11.3 | 0.00 | 0.00 | 0.00 | 39 | 1020.6 |
| 20260502181040 | 22 | 244 | 1.6 | 9.7 | 0.00 | 0.00 | 0.00 | 37 | 1020.8 |
| 20260502163553 | 21 | 9 | 1.6 | 6.4 | 0.00 | 0.00 | 0.00 | 37 | 1021.6 |
| 20260502161437 | 21 | 313 | 1.6 | 9.7 | 0.00 | 0.00 | 0.00 | 40 | 1021.5 |
| 20260502160458 | 20 | 242 | 0.0 | 4.8 | 0.00 | 0.00 | 0.00 | 40 | 1021.6 |
| 20260502151513 | 19 | 232 | 0.0 | 0.0 | 0.00 | 0.00 | 0.00 | 52 | 1021.4 |
| 20260502150534 | 18 | 232 | 0.0 | 0.0 | 0.00 | 0.00 | 0.00 | 57 | 1021.4 |
| 20260502130217 | 10 | 179 | 0.0 | 0.0 | 0.00 | 0.00 | 0.00 | 88 | 1020.8 |
| 20260502123225 | 8 | 179 | 0.0 | 0.0 | 0.00 | 0.00 | 0.00 | 87 | 1020.3 |
| 20260502122158 | 8 | 179 | 0.0 | 0.0 | 0.00 | 0.00 | 0.00 | 88 | 1020.2 |
| 20260502121158 | 8 | 179 | 0.0 | 0.0 | 0.00 | 0.00 | 0.00 | 87 | 1019.9 |
| 20260502112820 | 8 | 179 | 0.0 | 0.0 | 0.00 | 0.00 | 0.00 | 86 | 1019.2 |
| 20260502111813 | 8 | 179 | 0.0 | 0.0 | 0.00 | 0.00 | 0.00 | 86 | 1019.2 |
| 20260502110737 | 8 | 179 | 0.0 | 0.0 | 0.00 | 0.00 | 0.00 | 86 | 1018.9 |
| 20260502104619 | 9 | 179 | 0.0 | 0.0 | 0.00 | 0.00 | 0.00 | 87 | 1018.8 |
| 20260502103552 | 9 | 179 | 0.0 | 0.0 | 0.00 | 0.00 | 0.00 | 87 | 1018.8 |
| 20260502102521 | 8 | 179 | 0.0 | 0.0 | 0.00 | 0.00 | 0.00 | 86 | 1018.7 |
| 20260502101501 | 8 | 179 | 0.0 | 0.0 | 0.00 | 0.00 | 0.00 | 86 | 1018.4 |
| 20260502100454 | 8 | 179 | 0.0 | 0.0 | 0.00 | 0.00 | 0.00 | 85 | 1018.4 |
| 20260502091435 | 10 | 179 | 0.0 | 0.0 | 0.00 | 0.00 | 0.00 | 85 | 1018.4 |
| 20260502090420 | 10 | 179 | 0.0 | 0.0 | 0.00 | 0.00 | 0.00 | 85 | 1018.3 |
| 20260502070717 | 10 | 156 | 0.0 | 0.0 | 0.00 | 0.00 | 0.00 | 85 | 1018.5 |
| 20260502065659 | 10 | 156 | 0.0 | 0.0 | 0.00 | 0.00 | 0.00 | 85 | 1018.6 |
| 20260502064651 | 10 | 156 | 0.0 | 0.0 | 0.00 | 0.00 | 0.00 | 84 | 1018.5 |
| 20260502063703 | 10 | 156 | 0.0 | 0.0 | 0.00 | 0.00 | 0.00 | 84 | 1018.5 |
| 20260502062703 | 11 | 156 | 0.0 | 0.0 | 0.00 | 0.00 | 0.00 | 84 | 1018.5 |
| 20260502061719 | 11 | 156 | 0.0 | 0.0 | 0.00 | 0.00 | 0.00 | 84 | 1018.5 |
| 20260502060657 | 11 | 156 | 0.0 | 0.0 | 0.00 | 0.00 | 0.00 | 84 | 1018.5 |
| 20260502055649 | 11 | 156 | 0.0 | 0.0 | 0.00 | 0.00 | 0.00 | 83 | 1018.5 |
| 20260502054629 | 11 | 156 | 0.0 | 0.0 | 0.00 | 0.00 | 0.00 | 83 | 1018.4 |
| 20260502053645 | 12 | 156 | 0.0 | 0.0 | 0.00 | 0.00 | 0.00 | 83 | 1018.4 |
| 20260502052651 | 12 | 156 | 0.0 | 0.0 | 0.00 | 0.00 | 0.00 | 84 | 1018.3 |
| 20260502050441 | 12 | 156 | 0.0 | 0.0 | 0.00 | 0.00 | 0.00 | 82 | 1018.2 |
| 20260502045445 | 12 | 156 | 0.0 | 0.0 | 0.00 | 0.00 | 0.00 | 81 | 1018.3 |
| 20260502044427 | 13 | 156 | 0.0 | 0.0 | 0.00 | 0.00 | 0.00 | 81 | 1018.3 |
| 20260502043353 | 13 | 156 | 0.0 | 0.0 | 0.00 | 0.00 | 0.00 | 82 | 1018.3 |
| 20260502042415 | 13 | 156 | 0.0 | 0.0 | 0.00 | 0.00 | 0.00 | 82 | 1018.2 |
| 20260502041434 | 13 | 156 | 0.0 | 0.0 | 0.00 | 0.00 | 0.00 | 82 | 1018.2 |
| 20260502040425 | 13 | 156 | 0.0 | 0.0 | 0.00 | 0.00 | 0.00 | 81 | 1018.0 |
| 20260502035349 | 13 | 156 | 0.0 | 0.0 | 0.00 | 0.00 | 0.00 | 81 | 1018.1 |
| 20260502034344 | 13 | 156 | 0.0 | 0.0 | 0.00 | 0.00 | 0.00 | 80 | 1018.0 |
| 20260502033321 | 13 | 156 | 0.0 | 0.0 | 0.00 | 0.00 | 0.00 | 80 | 1018.0 |
| 20260502032324 | 13 | 156 | 0.0 | 0.0 | 0.00 | 0.00 | 0.00 | 79 | 1018.0 |
| 20260502031258 | 14 | 156 | 0.0 | 1.6 | 0.00 | 0.00 | 0.00 | 79 | 1017.9 |
| 20260502030223 | 14 | 156 | 0.0 | 0.0 | 0.00 | 0.00 | 0.00 | 78 | 1017.7 |
| 20260502024055 | 15 | 0 | 0.0 | 0.0 | 0.00 | 0.00 | 0.00 | 78 | 1017.5 |
| 20260502023109 | 15 | 0 | 0.0 | 0.0 | 0.00 | 0.00 | 0.00 | 76 | 1017.2 |
| 20260502022130 | 15 | 0 | 0.0 | 0.0 | 0.00 | 0.00 | 0.00 | 75 | 1017.1 |
| 20260502021145 | 15 | 0 | 0.0 | 0.0 | 0.00 | 0.00 | 0.00 | 75 | 1017.1 |
| 20260502020113 | 15 | 0 | 0.0 | 0.0 | 0.00 | 0.00 | 0.00 | 74 | 1016.9 |
| 20260502015121 | 16 | 0 | 0.0 | 0.0 | 0.00 | 0.00 | 0.00 | 73 | 1016.7 |
| 20260502014130 | 16 | 0 | 0.0 | 0.0 | 0.00 | 0.00 | 0.00 | 73 | 1016.4 |
| 20260502013121 | 16 | 0 | 0.0 | 0.0 | 0.00 | 0.00 | 0.00 | 71 | 1016.2 |
| 20260502012132 | 16 | 0 | 0.0 | 0.0 | 0.00 | 0.00 | 0.00 | 70 | 1015.9 |
| 20260502011152 | 16 | 0 | 0.0 | 0.0 | 0.00 | 0.00 | 0.00 | 71 | 1015.8 |
| 20260502010201 | 16 | 0 | 0.0 | 0.0 | 0.00 | 0.00 | 0.00 | 70 | 1015.6 |
| 20260502004031 | 17 | 0 | 0.0 | 0.0 | 0.00 | 0.00 | 0.00 | 67 | 1015.5 |
| 20260502003022 | 17 | 0 | 0.0 | 0.0 | 0.00 | 0.00 | 0.00 | 68 | 1015.3 |
| 20260502002038 | 17 | 0 | 0.0 | 0.0 | 0.00 | 0.00 | 0.00 | 68 | 1015.2 |
| 20260502001046 | 17 | 0 | 0.0 | 0.0 | 0.00 | 0.00 | 0.00 | 66 | 1015.1 |
| 20260502000107 | 18 | 0 | 0.0 | 0.0 | 0.00 | 0.00 | 0.00 | 65 | 1014.8 |
| 20260501235056 | 18 | 39 | 0.0 | 0.0 | 0.00 | 0.00 | 0.00 | 64 | 1014.7 |
| 20260501234100 | 18 | 39 | 0.0 | 0.0 | 0.00 | 0.00 | 0.00 | 61 | 1014.6 |
| 20260501233110 | 18 | 39 | 0.0 | 0.0 | 0.00 | 0.00 | 0.00 | 58 | 1014.6 |
| 20260501232036 | 18 | 39 | 0.0 | 0.0 | 0.00 | 0.00 | 0.00 | 56 | 1014.5 |
| 20260501231051 | 18 | 40 | 0.0 | 0.0 | 0.00 | 0.00 | 0.00 | 56 | 1014.4 |
| 20260501230056 | 18 | 40 | 0.0 | 1.6 | 0.00 | 0.00 | 0.00 | 54 | 1014.4 |
| 20260501225101 | 18 | 25 | 0.0 | 3.2 | 0.00 | 0.00 | 0.00 | 54 | 1014.4 |
| 20260501224121 | 18 | 25 | 0.0 | 3.2 | 0.00 | 0.00 | 0.00 | 57 | 1014.5 |
| 20260501223107 | 18 | 0 | 0.0 | 11.3 | 0.00 | 0.00 | 0.00 | 54 | 1014.4 |
| 20260501222053 | 18 | 355 | 1.6 | 11.3 | 0.00 | 0.00 | 0.00 | 54 | 1014.3 |
| 20260501221031 | 18 | 80 | 0.0 | 4.8 | 0.00 | 0.00 | 0.00 | 56 | 1014.2 |
| 20260501220038 | 18 | 91 | 0.0 | 8.0 | 0.00 | 0.00 | 0.00 | 55 | 1014.2 |
| 20260501215055 | 18 | 40 | 1.6 | 8.0 | 0.00 | 0.00 | 0.00 | 53 | 1014.3 |
| 20260501214046 | 18 | 47 | 1.6 | 6.4 | 0.00 | 0.00 | 0.00 | 56 | 1014.5 |
| 20260501213040 | 18 | 36 | 1.6 | 6.4 | 0.00 | 0.00 | 0.00 | 54 | 1014.5 |
| 20260501212019 | 18 | 69 | 0.0 | 4.8 | 0.00 | 0.00 | 0.00 | 55 | 1014.7 |